Probability
19 39 45 58 61 68 68 74 74 81 74 71 71 68 61 55 48 52 42 35 39 29 32 29 23 13 13 10 10 0 3 3 6 6 10 10 6 3 0 0 0 0 3
19 35 55 58 58 65 65 68 68 68 68 68 61 68 58 55 52 55 45 39 35 39 32 29 26 13 13 10 10 0 3 3 0 0 0 0 3 3 0 0 3 3 6
23 32 45 58 61 61 61 61 58 55 61 61 58 58 58 58 55 48 48 45 42 42 29 23 26 19 10 10 6 3 6 3 0 0 0 0 0 0 0 0 3 3 6
23 29 39 55 55 55 61 61 58 58 52 55 55 55 55 55 55 45 48 39 39 35 29 23 26 19 10 10 6 6 6 0 0 0 0 0 0 0 0 0 0 0 3
26 29 35 52 48 48 48 52 52 52 52 52 48 55 52 55 48 45 45 45 42 32 29 26 29 19 10 13 10 6 6 3 0 0 0 0 0 0 0 0 0 0 0
32 29 29 48 45 42 39 45 32 45 48 48 48 45 48 52 52 48 45 48 42 32 26 29 23 16 13 10 10 6 0 0 0 0 0 0 0 3 3 0 0 0 0
26 23 26 39 42 39 39 35 32 29 29 32 35 45 48 45 52 48 52 42 39 32 29 23 23 10 10 10 10 6 0 0 0 0 0 0 3 3 6 3 3 3 0
29 23 26 29 35 32 29 32 29 26 29 29 29 32 39 45 48 52 48 42 32 29 26 23 23 16 10 6 6 3 0 0 0 0 0 0 0 3 3 3 3 3 3
26 26 19 19 19 19 26 26 23 19 19 23 29 35 35 29 48 45 42 42 35 35 29 26 19 16 10 10 10 3 0 0 0 0 0 0 0 3 3 3 3 3 3
19 23 23 19 16 13 13 13 16 19 19 16 16 16 10 6 10 19 19 23 35 35 35 29 23 19 13 10 10 0 0 0 0 0 0 0 0 0 3 3 3 3 3
13 19 19 13 13 13 10 3 10 10 10 3 0 0 0 10 10 10 0 6 23 29 26 29 26 19 6 3 3 0 0 0 0 0 0 0 0 0 3 3 3 3 3
16 13 16 16 19 19 6 6 3 3 3 0 6 0 3 3 10 0 0 0 6 13 16 19 19 10 3 3 3 0 3 0 0 0 0 0 0 0 3 3 3 3 3
10 13 13 16 19 19 13 10 10 6 6 6 3 0 3 0 3 10 16 3 6 0 13 10 10 10 3 3 3 3 3 3 0 0 0 0 0 3 3 3 3 3 3
10 10 13 13 13 19 16 13 6 0 6 6 6 0 0 0 3 10 19 19 10 19 19 16 19 16 6 3 3 3 3 3 3 0 0 0 0 3 3 3 3 3 3
6 10 10 10 10 10 16 13 6 3 3 3 3 3 0 0 0 0 6 13 13 13 13 16 16 13 6 3 3 3 3 3 3 3 0 0 0 0 0 0 0 3 0
0 0 10 10 10 10 10 10 6 6 6 3 3 0 0 0 0 0 3 6 3 13 6 13 10 10 10 10 6 3 3 3 3 3 3 0 0 0 0 0 3 3 3
0 0 0 3 6 10 10 10 6 3 0 3 0 0 0 0 0 0 3 3 6 3 3 6 10 10 6 6 6 3 3 3 0 0 0 3 0 0 0 0 3 3 3
0 0 0 0 0 6 6 6 3 0 0 0 0 0 0 0 0 0 3 3 3 3 0 3 6 6 6 6 3 6 3 3 0 0 0 0 0 0 0 0 0 6 3
0 0 0 0 0 0 6 6 3 3 0 0 0 0 0 0 0 0 0 3 3 0 3 3 3 3 0 3 3 3 3 3 3 0 0 0 0 3 3 0 0 0 3
0 0 0 0 0 0 0 3 3 3 0 0 0 0 0 0 0 0 0 0 3 3 3 3 3 0 0 0 0 3 3 3 3 3 3 0 3 3 3 3 0 0 0
0 0 0 0 0 0 0 0 0 3 0 0 0 0 0 0 0 0 0 0 3 3 3 3 0 0 0 0 0 0 3 0 0 0 3 3 3 3 3 3 0 3 0
0 0 0 0 0 0 0 0 0 0 0 0 0 0 0 0 0 0 0 0 0 0 0 0 0 0 0 0 0 0 0 0 0 0 0 0 0 0 0 0 0 0 0
0 0 0 0 0 0 0 0 0 0 0 0 0 0 0 0 0 0 0 0 0 0 0 0 0 0 0 0 0 0 0 0 0 0 0 0 0 0 0 0 0 0 0
0 0 0 0 0 0 0 0 0 0 0 0 3 3 0 0 0 0 0 0 0 0 0 0 0 0 0 0 0 0 0 0 0 0 0 0 0 0 0 0 0 0 0
0 0 0 0 0 0 0 0 0 0 0 3 0 3 0 3 0 0 0 0 0 0 0 0 0 0 0 0 0 0 0 0 0 0 0 0 0 0 0 0 0 0 0
0 0 0 0 0 0 0 0 0 0 0 3 0 0 3 3 0 0 0 0 0 0 0 0 0 0 0 0 0 0 0 0 0 0 0 0 0 0 0 0 0 0 0
Height
5855 5855 5856 5857 5859 5860 5861 5862 5863 5865 5866 5867 5868 5869 5870 5870 5871 5872 5873 5874 5874 5875 5876 5877 5877 5878 5879 5879 5880 5880 5881 5881 5881 5881 5882 5882 5881 5881 5881 5881 5881 5880 5879
5852 5853 5854 5855 5856 5858 5859 5860 5861 5863 5864 5865 5866 5867 5869 5869 5870 5871 5872 5873 5874 5874 5875 5876 5877 5877 5878 5879 5879 5880 5880 5880 5881 5881 5881 5881 5881 5881 5881 5881 5880 5880 5879
5849 5851 5852 5853 5854 5855 5857 5858 5859 5861 5862 5863 5864 5866 5867 5868 5869 5870 5871 5872 5873 5873 5874 5875 5876 5876 5877 5878 5878 5879 5879 5880 5880 5880 5881 5881 5881 5881 5881 5880 5880 5880 5879
5846 5848 5849 5850 5851 5853 5854 5856 5857 5858 5860 5861 5862 5864 5865 5866 5867 5868 5869 5870 5871 5872 5873 5874 5875 5875 5876 5877 5877 5878 5879 5879 5879 5880 5880 5880 5880 5880 5880 5880 5880 5879 5879
5843 5844 5846 5847 5849 5850 5851 5853 5854 5856 5857 5859 5860 5861 5863 5864 5866 5867 5868 5869 5870 5871 5872 5873 5873 5874 5875 5876 5876 5877 5877 5878 5878 5879 5879 5879 5879 5879 5879 5879 5879 5879 5878
5840 5841 5842 5844 5845 5847 5848 5850 5851 5853 5854 5856 5858 5859 5861 5862 5863 5865 5866 5867 5868 5869 5870 5871 5872 5873 5873 5874 5875 5876 5876 5877 5877 5878 5878 5878 5878 5878 5878 5878 5878 5878 5877
5835 5837 5839 5840 5842 5844 5845 5847 5848 5850 5852 5853 5855 5856 5858 5859 5861 5862 5864 5865 5866 5867 5868 5869 5870 5871 5872 5872 5873 5874 5875 5875 5876 5876 5876 5877 5877 5877 5877 5877 5877 5876 5876
5831 5833 5834 5836 5838 5840 5842 5843 5845 5847 5849 5850 5852 5853 5855 5857 5858 5860 5861 5863 5864 5865 5866 5867 5868 5869 5870 5870 5871 5872 5873 5873 5874 5874 5874 5875 5875 5875 5875 5875 5875 5875 5874
5826 5828 5830 5832 5834 5836 5838 5839 5841 5843 5845 5847 5849 5850 5852 5854 5855 5857 5858 5860 5861 5862 5863 5864 5865 5866 5867 5868 5869 5870 5870 5871 5871 5872 5872 5873 5873 5874 5874 5873 5873 5873 5872
5821 5823 5825 5827 5829 5831 5833 5835 5837 5839 5841 5843 5845 5847 5849 5850 5852 5854 5855 5857 5858 5859 5860 5862 5863 5864 5865 5866 5866 5867 5868 5868 5869 5869 5870 5870 5871 5871 5871 5871 5871 5871 5870
5815 5818 5820 5822 5824 5826 5828 5831 5833 5835 5837 5839 5841 5843 5845 5847 5849 5850 5852 5853 5855 5856 5857 5858 5860 5861 5862 5863 5863 5864 5865 5865 5866 5866 5867 5868 5868 5869 5869 5869 5868 5868 5868
5809 5812 5815 5817 5819 5821 5823 5826 5828 5830 5833 5835 5837 5839 5841 5843 5845 5847 5848 5850 5851 5853 5854 5855 5856 5857 5858 5859 5860 5861 5861 5862 5863 5864 5864 5865 5865 5866 5866 5866 5866 5865 5865
5803 5806 5809 5811 5814 5816 5818 5820 5822 5825 5827 5830 5832 5834 5836 5838 5841 5842 5844 5845 5847 5849 5850 5851 5852 5854 5855 5856 5857 5857 5858 5859 5860 5860 5861 5862 5862 5863 5863 5862 5862 5862 5862
5797 5800 5803 5805 5808 5810 5812 5815 5817 5819 5822 5824 5827 5829 5831 5834 5836 5838 5839 5841 5842 5844 5846 5847 5848 5850 5851 5852 5853 5854 5855 5855 5856 5857 5858 5858 5859 5859 5859 5859 5859 5859 5859
5791 5794 5796 5799 5801 5803 5806 5808 5811 5813 5816 5818 5821 5823 5826 5828 5830 5832 5834 5836 5837 5839 5841 5843 5844 5845 5846 5847 5849 5850 5851 5852 5852 5853 5854 5854 5855 5855 5855 5855 5855 5855 5855
5785 5787 5790 5792 5794 5797 5799 5802 5804 5807 5809 5812 5814 5817 5820 5822 5824 5826 5828 5830 5832 5833 5835 5837 5839 5840 5842 5843 5844 5845 5846 5847 5848 5849 5849 5850 5850 5851 5851 5851 5851 5851 5851
5777 5780 5782 5785 5787 5790 5792 5795 5797 5800 5802 5805 5808 5810 5813 5815 5818 5820 5822 5824 5826 5827 5829 5831 5833 5835 5836 5838 5839 5840 5841 5842 5843 5844 5844 5845 5845 5846 5846 5846 5846 5846 5846
5769 5772 5775 5777 5780 5782 5784 5787 5790 5792 5795 5797 5800 5803 5805 5808 5810 5813 5815 5817 5819 5821 5823 5825 5827 5829 5831 5832 5833 5834 5836 5837 5837 5838 5839 5839 5840 5841 5841 5841 5842 5842 5842
5761 5764 5767 5769 5772 5774 5777 5779 5782 5785 5787 5790 5792 5795 5798 5800 5803 5805 5807 5810 5811 5814 5816 5818 5821 5823 5824 5826 5827 5828 5829 5830 5831 5832 5833 5833 5834 5835 5835 5836 5836 5836 5836
5752 5755 5758 5761 5764 5766 5769 5772 5774 5777 5779 5782 5784 5787 5790 5792 5794 5797 5799 5802 5804 5806 5809 5811 5814 5816 5818 5819 5820 5822 5823 5824 5824 5825 5826 5826 5827 5828 5829 5829 5830 5830 5831
5743 5746 5749 5752 5755 5758 5760 5763 5766 5768 5771 5773 5776 5779 5781 5784 5786 5789 5791 5793 5796 5798 5801 5804 5806 5808 5810 5812 5813 5815 5816 5816 5817 5818 5819 5819 5820 5820 5821 5822 5823 5824 5824
5734 5737 5740 5743 5746 5749 5752 5754 5757 5759 5762 5765 5767 5770 5772 5775 5777 5780 5782 5785 5787 5790 5793 5796 5798 5800 5802 5804 5806 5807 5808 5810 5810 5811 5811 5812 5813 5813 5814 5815 5816 5817 5818
5723 5727 5731 5734 5737 5740 5742 5745 5748 5750 5753 5756 5758 5760 5763 5765 5768 5771 5773 5776 5778 5781 5784 5787 5790 5792 5794 5796 5798 5800 5801 5802 5803 5804 5804 5805 5805 5806 5807 5808 5809 5810 5811
5713 5717 5720 5723 5726 5729 5732 5735 5738 5741 5744 5746 5748 5751 5753 5755 5758 5761 5764 5766 5769 5771 5774 5777 5780 5783 5785 5787 5789 5791 5793 5794 5795 5796 5797 5797 5797 5798 5799 5800 5801 5802 5803
5702 5706 5709 5713 5716 5719 5722 5725 5728 5731 5734 5736 5739 5741 5743 5746 5748 5751 5754 5757 5759 5762 5764 5767 5770 5773 5776 5778 5780 5782 5783 5785 5786 5788 5789 5789 5790 5790 5791 5792 5793 5795 5796
5690 5694 5698 5701 5705 5708 5711 5715 5718 5721 5723 5726 5729 5731 5733 5736 5738 5741 5744 5746 5749 5752 5755 5757 5760 5763 5766 5768 5770 5772 5774 5775 5777 5778 5780 5781 5782 5783 5783 5784 5785 5787 5788
Wind_Speed
14 13 13 13 13 13 12 12 12 12 12 12 12 12 12 11 11 11 10 9 9 8 7 7 6 6 5 5 4 4 4 4 3 2 2 2 2 2 2 2 3 4 5
15 15 14 14 14 13 13 13 13 13 13 13 13 13 12 12 12 11 11 10 9 8 8 7 7 6 6 5 5 5 4 4 3 2 2 1 1 1 1 1 2 3 3
16 16 16 15 15 15 14 14 14 14 14 14 14 14 14 13 13 12 11 11 10 9 8 7 7 7 6 6 6 6 5 4 3 3 2 2 2 1 0 1 1 2 3
17 17 17 16 16 15 15 15 15 15 15 15 15 15 15 15 14 13 12 12 11 10 9 8 8 8 7 7 7 7 6 5 4 4 3 3 2 2 1 1 1 2 3
19 19 18 18 17 16 16 15 16 16 16 16 16 16 16 16 16 15 14 13 12 11 10 9 9 9 8 8 8 8 7 6 6 5 5 4 4 3 3 3 3 3 4
20 20 20 19 18 18 17 16 16 16 16 17 17 17 17 17 17 16 15 14 13 12 11 11 10 10 9 9 9 9 8 8 7 6 6 6 5 5 5 5 5 5 5
22 22 21 20 20 19 18 18 17 17 17 16 17 18 17 17 17 17 17 16 15 14 13 12 12 11 11 10 10 10 10 9 9 8 8 7 7 6 6 7 7 7 7
24 23 23 22 21 20 20 20 19 19 18 18 17 18 18 18 18 18 18 17 16 15 14 13 13 12 12 12 11 11 11 11 11 10 10 9 8 8 8 8 9 9 9
25 25 24 23 23 23 22 22 21 21 20 19 19 18 18 18 18 19 18 18 18 17 16 15 14 14 13 13 13 13 13 13 12 12 11 11 10 10 10 10 10 10 10
26 26 26 25 24 24 24 23 23 22 22 21 20 20 19 19 19 19 19 19 19 19 18 17 16 15 15 15 14 14 14 14 14 13 13 12 12 11 11 11 11 11 11
28 27 27 27 26 25 25 25 25 24 24 23 23 22 21 20 20 20 20 20 19 19 19 19 18 17 17 16 16 16 15 15 15 14 14 14 13 12 12 12 12 13 12
29 29 28 28 27 27 27 27 27 26 26 25 25 25 24 23 22 22 22 21 21 21 20 20 19 19 18 17 17 17 16 16 16 16 15 15 14 14 14 14 14 14 14
30 30 30 30 29 29 29 29 29 28 28 27 27 27 26 25 24 23 23 23 23 22 22 21 20 19 19 19 18 17 17 17 17 17 17 16 16 16 15 15 15 15 14
32 32 32 32 31 30 31 30 30 30 30 30 29 29 28 27 26 25 25 25 25 24 24 23 22 21 20 20 19 19 18 18 18 18 18 18 17 17 17 17 16 16 15
33 33 33 34 32 32 32 32 32 32 31 31 31 31 30 30 29 27 27 27 27 27 26 26 25 24 23 22 21 20 20 20 20 20 20 19 19 19 19 18 18 18 18
34 34 34 35 34 34 34 34 33 33 33 33 32 32 32 32 31 30 30 30 29 29 29 28 27 26 25 24 23 23 22 22 21 22 22 21 21 21 20 20 19 19 19
36 35 35 36 36 35 35 35 35 35 35 34 34 34 34 34 33 32 32 32 32 31 31 30 29 28 28 27 26 25 24 24 23 23 23 23 23 22 22 22 21 21 21
37 36 36 36 36 36 36 36 36 36 36 36 35 36 36 35 35 34 33 33 34 34 33 33 32 30 30 29 28 27 27 27 26 25 25 25 25 25 24 24 24 23 23
39 38 38 37 36 37 36 36 36 37 37 37 36 36 37 37 36 36 35 35 35 35 35 34 34 33 32 31 31 30 29 29 29 28 28 28 27 27 27 26 26 26 26
41 40 39 38 37 37 37 37 37 37 38 38 38 37 37 37 37 38 37 37 37 37 36 36 35 35 35 34 34 33 32 31 31 31 30 30 29 29 29 28 28 28 28
42 41 40 40 39 38 38 38 38 38 38 38 39 39 39 39 39 39 39 39 39 38 38 38 37 37 37 37 36 35 35 34 33 32 32 31 30 30 30 30 30 30 30
43 42 42 41 41 40 40 40 40 40 40 39 40 40 40 40 40 40 40 41 41 40 40 40 39 38 38 38 38 38 37 36 35 34 34 34 33 32 32 31 32 32 31
44 43 43 43 42 42 41 41 41 42 41 41 41 41 41 41 41 41 40 41 42 42 42 42 42 40 40 40 39 39 38 38 37 36 35 36 36 35 34 34 34 34 33
45 45 44 44 43 43 42 42 42 42 41 41 42 42 42 42 41 41 41 42 42 43 43 44 43 42 41 41 40 40 40 39 39 38 37 37 38 38 37 36 35 35 35
47 46 45 45 45 44 43 42 42 42 42 42 42 42 42 42 43 43 43 42 43 43 43 44 43 43 42 42 42 41 41 41 41 40 39 38 39 39 38 37 37 36 36
48 47 46 46 45 45 44 43 43 43 43 43 43 43 43 42 43 44 44 44 43 43 44 44 45 44 43 43 43 42 42 41 41 42 41 40 40 40 39 39 38 38 38
Wind_Direction
228 227 226 223 220 216 215 214 215 213 211 209 206 201 198 195 192 188 185 182 180 179 177 177 179 179 181 180 179 179 181 183 180 165 146 124 99 89 81 74 58 47 44
231 228 227 225 222 219 219 217 216 216 215 214 211 207 205 202 199 196 193 191 189 189 188 189 188 189 191 192 190 192 196 200 199 194 192 181 159 119 72 61 44 35 31
232 229 227 226 224 223 223 221 220 219 217 217 215 213 210 207 205 203 202 200 198 197 198 199 200 200 201 201 203 206 207 209 210 211 213 216 214 217 263 344 7 12 5
232 230 229 227 225 224 225 224 223 222 220 219 218 216 213 211 209 209 209 208 207 206 206 206 207 207 209 210 213 215 217 219 220 223 227 229 230 237 253 284 312 330 337
233 231 230 229 227 226 226 225 223 223 223 222 220 219 217 214 213 213 214 214 213 213 213 212 214 213 215 217 219 220 223 225 227 232 235 238 243 246 254 267 281 297 312
233 232 231 231 229 228 228 227 224 223 224 223 222 221 220 218 216 217 217 218 218 219 219 219 220 219 220 221 223 223 226 229 232 236 240 244 249 252 258 267 278 287 296
234 234 232 231 231 229 228 229 227 224 224 224 223 223 223 223 222 221 221 220 221 223 223 224 224 225 225 225 226 227 230 232 236 240 243 248 254 258 263 267 275 283 289
235 235 234 233 232 231 230 230 229 227 226 227 226 225 225 226 226 225 225 224 225 226 227 228 228 228 229 229 230 232 235 237 240 243 247 252 258 262 268 270 274 280 285
236 235 235 234 233 232 231 231 230 229 228 228 228 228 227 227 228 228 229 228 228 229 230 231 232 233 233 234 234 236 238 241 243 245 247 253 259 263 269 274 275 277 280
236 236 235 234 233 233 232 232 232 232 231 230 229 230 229 229 229 230 230 230 230 230 232 233 234 236 236 236 238 240 241 242 244 245 248 252 258 265 269 273 274 276 278
236 236 236 235 234 233 234 234 234 234 233 232 231 232 232 232 232 232 232 232 232 232 234 236 236 238 240 239 240 242 244 243 243 246 248 252 257 263 269 272 272 273 276
236 236 236 235 236 236 236 237 237 236 235 234 234 234 234 235 235 235 235 235 235 235 236 237 239 240 242 243 244 244 243 244 245 247 249 252 256 261 266 270 271 272 273
236 236 236 236 237 238 237 238 238 237 237 237 236 236 236 236 236 236 236 236 236 236 237 238 240 241 242 244 245 245 243 244 247 248 250 252 255 260 264 268 269 270 271
236 236 237 236 239 240 238 238 238 238 238 238 238 237 238 238 238 238 237 238 238 238 238 239 240 242 243 245 247 247 247 247 248 249 251 253 256 260 263 265 266 266 269
237 237 237 238 239 241 239 238 238 239 239 239 239 238 238 240 240 240 239 239 241 240 240 240 241 242 243 245 246 247 247 248 250 251 252 255 256 258 260 263 264 264 266
238 239 239 240 241 242 241 240 239 240 241 240 239 239 240 241 241 240 240 241 243 243 241 241 241 243 245 246 246 248 247 248 250 251 253 255 257 259 259 260 261 263 266
238 239 239 240 241 242 241 241 241 241 241 241 240 241 241 242 242 242 242 243 244 244 243 242 242 243 244 246 247 248 248 249 250 253 254 255 257 258 258 259 260 263 266
240 240 240 241 241 242 241 242 242 242 243 242 243 242 242 243 243 244 243 244 244 244 245 244 243 243 244 246 247 248 250 250 251 254 255 256 257 258 258 258 259 262 264
241 240 241 241 242 242 241 242 243 243 243 243 244 243 244 244 244 244 244 244 244 244 244 245 244 244 245 246 248 249 251 252 253 255 256 258 258 258 258 257 259 261 263
241 241 241 241 242 242 242 242 243 244 245 245 245 245 245 245 245 245 245 245 244 244 244 245 245 245 246 247 248 250 252 254 255 255 256 257 257 258 257 257 259 261 262
241 242 242 242 242 242 242 243 244 244 245 245 244 246 247 247 246 246 246 246 245 245 244 245 246 246 247 248 249 251 253 255 256 254 255 255 256 257 257 258 259 260 261
242 242 242 242 243 243 243 244 244 245 246 245 245 246 246 246 246 246 246 246 245 245 245 245 247 248 248 249 250 252 253 254 255 255 255 255 255 256 257 257 258 259 261
241 241 242 243 243 244 244 245 245 245 245 246 246 246 246 246 246 246 246 246 246 246 246 246 248 250 250 251 251 252 253 254 255 256 256 257 256 256 256 256 257 259 261
241 241 242 242 243 244 245 245 245 245 246 246 246 247 247 247 247 246 246 246 247 247 247 247 248 250 251 251 251 252 253 255 254 255 257 258 258 257 256 255 257 259 260
240 241 241 242 243 244 245 245 245 246 247 247 248 249 249 248 247 246 247 248 248 247 247 247 247 249 251 251 252 253 253 255 255 254 255 257 257 257 256 256 256 258 260
240 240 241 241 242 243 244 245 246 246 247 248 249 249 249 248 248 248 248 249 248 248 248 248 247 249 250 251 252 253 253 254 254 254 255 256 257 257 257 257 258 259 261